THOR ABLESTAR DEB, 3752

Orbit data source: Space-Track

THOR ABLESTAR DEB, 3752 is space debris in LEO originally from a launch on Thu, 29 Jun 1961 UTC launched from the Air Force Eastern Test Range (AFETR). Debris objects in space refer to the collection of defunct objects orbiting the Earth. Examples of debris include non-operational satellites, rocket bodies, and fragments generated from explosions, collisions, or faulty payload assembly.

Loading next visibility...
Identifier
3752, 1961-015JE
Orbit
LEO
Country
Flag of USUS
Related business
Manufacturer
Unknown
Mission
Spacecraft
Bus & Motor
Unknown
Mass
Unknown
Launch date (UTC)
1961-06-29 (64 years ago)
Launch vehicle
Unknown
Launch site
Air Force Eastern Test Range (AFETR)
Object type
Payload
Rocket body
Debris
Shape & HBR
Unknown shape, 0.1 m
Radar Cross Section
Small (<0.1 m²)

Expand to show TLE details & history
Last TLE update: 1 day ago

TLE from 1 day ago
0 THOR ABLESTAR DEB
1  3752U 61015JE  25293.00114946  .00000958  00000-0  14079-2 0  9991
2  3752  67.6287 282.6552 0195595  72.4426 322.0632 13.50716326772811
Epoch: 2025-10-20T00:01Z
TLE epoch observation values (Epoch: 2025-10-20T00:01:39.313Z)
Latitude
30.39839°
Longitude
-92.57015°
Altitude
958.845 km
Speed
7.432 km/s
True Right ascension
19h 46m 12s
True Declination
30° 15' 09"
Sunlit
Object was in daylight at epoch
Visualization orbit readout
Latitude
Unknown
Longitude
Unknown
Altitude
Unknown
Speed
Unknown
Apparent Right ascension
Unknown
Apparent Declination
Unknown
Sunlit
N/A
Visualization observer readout
Local Sidereal Time
06:08:54
Azimuth
Unknown
Elevation
Unknown
Doppler factor
Unknown
Orbital elements
Apogee altitude
1,213.598 km
Perigee altitude
922.314 km
Semi-major axis
7,446.093 km
Eccentricity
0.01956
Inclination
67.6287°
RAAN
282.6552°
Arg. of periapsis
72.4426°
True anomaly
320.6583°
Mean anomaly
322.0632°
Eccentric anomaly
321.36347°
Mean motion
3.37793 °/min
Orbital period
106.57 mins
BSTAR
0.0014079

Documentation

Showing up to 5 results
|